Погода в Черногубцеве

Россия / Смоленская область     55°33′10″N   34°56′37″E
темп.,
°C
ветер,
м/с
пор.,
м/с
влажн.,
%
обл.,
%
осадки,
мм/ч
давл.,
гПа
погр.,
м
27 октября, ср
ср2700:00+3юз61370100 0.0 1019412
03:00+3ююз61372100 0.0 1017388
06:00+3юз61472100 0.0 1015413
09:00+3юз71472100 0.0 1014475
12:00+4зюз71378100 0.1 1014659
15:00+5з61391100 0.5 1014625
18:00+6зюз51194100 0.1 1015477
21:00+6зюз51184100 0.2 1015452
28 октября, чт
чт2800:00+4юз5118995 0.0 1015261
03:00+4ююз51294100 0.1 1013344
06:00+6юз71595100 2.4 1010620
09:00+8зюз71494100 2.9 1010614
12:00+9з61294100 0.1 1011689
15:00+11сз71178100 0.4 10121044
18:00+8сз61188100 0.1 1017813
21:00+6ссв599097 0.1 1021652
29 октября, пт
пт2900:00+6св3786100 0.0 1024361
03:00+6в1281100 0.0 102635
06:00+6ююв2274100 0.0 102743
09:00+6ю357376 0.0 1029305
12:00+7ююз566715 0.0 1029743
15:00+8юз56685 0.0 1029652
18:00+5ююз48875 0.0 1029173
21:00+5юз499397 0.0 1029180
30 октября, сб
сб3000:00+4ююз4993100 0.0 1030180
03:00+4юз49945 0.0 1030182
06:00+3ююз49945 0.0 1030169
09:00+4ююз4109048 0.0 1030222
12:00+8ююз69705 0.0 1030386
15:00+9ююз5107010 0.0 1029490
18:00+5ю410905 0.0 1029235
21:00+5ююз513937 0.0 1029308
31 октября, вс
вс3100:00+5ююз5139332 0.0 1029333
03:00+4ююз513935 0.0 1028306
06:00+4ююз513935 0.0 1027284
09:00+4ююз513915 0.0 1027312
12:00+9ююз6127631 0.0 1026481
15:00+10ююз6127345 0.0 1025603
18:00+6ю512855 0.0 1025317
21:00+5ю613835 0.0 1025339